Track RESURS P2 now! 10-day predictions RESURS P2 is classified as:
1 40360U 14087A 21102.50900003 .00000869 00000-0 28603-4 0 9992 2 40360 97.2283 191.3642 0009227 184.2180 278.1304 15.34126473352153